SL-14 DEB, 45299

Orbit data source: Space-Track

SL-14 DEB, 45299 is space debris in LEO originally from a launch on Thu, 15 Aug 1991 UTC launched from the Plesetsk Missile And Space Complex (PKMTR). Debris objects in space refer to the collection of defunct objects orbiting the Earth. Examples of debris include non-operational satellites, rocket bodies, and fragments generated from explosions, collisions, or faulty payload assembly.

Loading next visibility...
Identifier
45299, 1991-056AM
Orbit
LEO
Country
Flag of CISCIS
Related business
Manufacturer
Unknown
Mission
Spacecraft
Bus & Motor
Unknown
Mass
Unknown
Launch date (UTC)
1991-08-15 (34 years ago)
Launch vehicle
Unknown
Launch site
Plesetsk Missile And Space Complex (PKMTR)
Object type
Payload
Rocket body
Debris
Shape & HBR
Unknown shape, 0.4 m
Radar Cross Section
Medium (>0.1 m² and <1 m²)

Expand to show TLE details & history
Last TLE update: 8 hours ago

TLE from 8 hours ago
0 SL-14 DEB
1 45299U 91056AM  25343.28913782  .00006712  00000-0  18201-1 0  9996
2 45299  82.6334 308.8709 0085757 124.2722 236.6557 13.12701806277867
Epoch: 2025-12-09T06:56Z
TLE epoch observation values (Epoch: 2025-12-09T06:56:21.507Z)
Latitude
-0.00001°
Longitude
126.50533°
Altitude
1,251.705 km
Speed
7.212 km/s
True Right ascension
20h 35m 29s
True Declination
0° 00' 00"
Sunlit
Object was in daylight at epoch
Visualization orbit readout
Latitude
Unknown
Longitude
Unknown
Altitude
Unknown
Speed
Unknown
Apparent Right ascension
Unknown
Apparent Declination
Unknown
Sunlit
N/A
Visualization observer readout
Local Sidereal Time
12:46:23
Azimuth
Unknown
Elevation
Unknown
Doppler factor
Unknown
Orbital elements
Apogee altitude
1,275.046 km
Perigee altitude
1,144.899 km
Semi-major axis
7,588.11 km
Eccentricity
0.00858
Inclination
82.6334°
RAAN
308.8709°
Arg. of periapsis
124.2722°
True anomaly
235.8396°
Mean anomaly
236.6557°
Eccentric anomaly
236.24717°
Mean motion
3.28354 °/min
Orbital period
109.64 mins
BSTAR
0.018201
Loading maneuver chart data...
Computing Atmospheric mass density...
Loading historical data...
Loading historical data...
Loading historical data...
Loading historical data...
Loading historical data...
Loading historical data...
Loading historical data...

Documentation

Showing up to 5 results
|